GFSNGP_sfc_30mbdewp_216.txt.gz
Dewpoint
38 38 38 37 36 37 36 35 30 30 29 30 27 27 29 28 28 26 26 29 33 33 33 33 34 35 36 37 37 37 37 37 36 37 40 45 47 47 46 45 45 44 43 42
37 39 38 37 37 37 36 34 33 32 31 32 32 31 30 28 27 26 30 33 33 33 33 33 34 36 37 38 39 39 39 39 39 39 39 41 45 47 47 46 45 43 42 42
32 37 35 32 35 35 34 35 34 31 32 32 31 30 30 29 28 30 33 33 32 31 31 31 31 34 34 37 39 40 40 40 40 42 42 41 42 46 46 45 43 42 42 41
31 33 24 29 31 34 34 33 33 32 31 31 31 30 27 27 30 32 32 32 31 31 31 31 32 34 36 37 39 40 41 42 42 43 42 43 45 45 45 44 42 41 41 41
29 28 30 31 30 27 28 25 31 31 31 31 24 26 28 31 31 31 30 29 29 30 31 31 31 33 36 37 40 42 42 42 43 42 42 41 42 44 45 44 42 41 41 40
30 26 24 27 23 24 24 23 25 26 28 20 23 18 22 29 29 29 29 29 27 27 28 30 31 35 36 37 38 39 40 41 42 41 41 41 41 41 41 43 43 42 40 40
30 28 30 32 25 22 20 24 25 25 24 24 22 23 25 24 22 22 21 19 19 17 17 23 31 36 37 36 37 39 41 41 40 40 42 41 39 38 39 38 38 38 38 38
30 27 25 34 32 25 27 26 25 24 24 23 21 20 19 15 15 15 16 17 19 24 29 32 35 37 36 36 38 39 39 39 39 40 39 38 37 37 37 36 35 34 33 33
31 30 31 31 32 30 28 26 26 19 15 15 14 14 14 14 15 16 17 21 30 32 33 34 35 37 36 37 40 40 39 38 38 38 37 37 36 35 34 34 33 32 32 31
32 33 32 29 26 26 27 22 15 14 13 13 14 16 16 17 17 19 27 31 32 34 36 35 37 38 37 40 40 39 38 38 38 37 36 36 35 34 33 32 32 32 31 30
33 32 32 33 30 19 16 16 16 17 18 18 17 19 19 25 31 32 32 35 36 36 35 35 39 39 41 41 41 39 39 38 37 37 36 35 34 34 34 33 33 32 32 31
30 33 32 31 31 20 22 26 27 27 28 32 32 32 33 33 33 33 33 34 33 34 35 35 39 39 40 40 41 40 39 38 36 36 35 34 34 33 34 34 34 34 34 33
25 25 31 27 28 29 29 29 30 32 32 31 32 33 32 32 32 32 32 31 31 33 34 36 36 36 37 38 40 39 39 38 36 35 34 34 33 32 32 33 34 34 34 34
25 23 26 28 28 29 28 29 30 30 30 29 29 30 30 30 30 30 30 30 29 29 33 35 35 35 35 36 37 37 37 37 35 34 34 34 34 33 33 31 31 31 33 33
23 26 28 29 28 27 28 28 27 27 27 27 27 29 29 29 29 29 29 30 32 32 32 34 33 33 34 34 36 37 36 36 35 34 34 34 33 33 33 32 31 31 31 32
29 30 30 28 27 26 26 26 25 25 25 26 27 28 28 29 29 28 27 29 30 30 33 32 31 32 32 33 34 35 35 35 34 34 33 33 33 32 31 31 31 31 31 31
28 28 29 27 25 25 24 25 24 24 24 24 26 29 28 29 28 28 30 29 29 31 31 31 30 31 31 32 33 34 35 35 34 34 33 33 32 32 32 31 31 31 31 31
29 30 29 27 25 25 25 25 27 27 26 28 28 27 26 26 27 29 30 29 28 28 30 30 29 29 30 30 32 33 33 33 33 33 32 32 32 32 32 31 31 31 31 31
30 30 31 30 28 27 26 26 26 26 27 26 25 25 25 25 26 30 29 29 27 28 29 30 29 30 30 31 30 32 33 32 33 32 32 32 31 31 31 31 31 31 31 30
29 29 31 29 28 26 25 25 26 26 27 26 25 25 24 24 25 27 28 28 27 27 29 29 29 30 31 31 31 32 33 32 32 31 31 30 30 30 29 29 29 30 29 29
27 27 26 25 23 23 23 24 26 25 26 26 26 24 23 25 25 27 27 27 28 28 29 29 30 30 30 31 31 31 31 31 30 30 30 29 29 27 26 25 24 24 24 24
25 25 24 24 24 24 25 25 26 25 25 26 26 25 24 23 24 26 28 28 28 28 30 28 28 29 29 29 29 28 28 28 28 27 26 25 23 22 21 20 19 19 19 19
24 25 25 24 23 23 23 22 22 22 22 21 22 23 24 24 24 24 25 28 29 28 27 26 27 27 27 25 25 24 24 23 22 22 22 21 20 19 18 17 17 16 16 16
24 23 22 22 22 22 21 22 22 19 19 20 23 24 24 24 25 27 27 28 27 25 25 25 25 24 23 23 22 22 21 20 19 18 18 18 17 16 15 14 14 14 14 15
22 21 21 20 18 17 19 20 20 20 20 20 21 22 23 26 27 24 23 23 23 22 21 21 20 20 20 19 18 18 18 18 17 16 16 15 14 13 13 12 12 12 12 12
22 19 19 19 19 19 19 18 16 17 18 18 20 19 21 26 26 24 22 21 19 18 17 17 17 16 16 16 15 15 15 15 14 14 13 12 12 11 10 10 10 9 9 10
18 18 17 15 16 17 16 15 14 14 18 18 18 19 21 23 21 20 18 16 16 15 15 14 14 14 13 12 12 12 12 12 12 11 11 11 10 10 9 9 9 9 8 8

GFSNGP_sfc_30mbdewp_222.txt.gz
Dewpoint
36 36 36 35 34 32 31 31 30 31 30 31 33 33 33 33 32 32 32 31 28 25 30 35 36 36 36 36 37 38 37 36 36 37 37 38 39 40 41 42 45 46 45 44
37 38 37 36 36 36 35 33 33 34 35 37 37 38 38 38 35 33 30 28 26 28 34 36 35 35 34 32 34 37 36 35 36 36 38 39 40 41 41 42 44 44 44 43
34 38 37 34 37 37 37 37 36 35 36 36 36 37 38 38 38 34 30 29 29 32 34 34 33 32 30 29 33 36 37 37 36 38 39 40 41 42 41 42 43 43 43 43
35 37 29 36 38 37 37 37 38 38 37 37 37 38 37 37 35 35 32 31 32 34 33 32 31 31 32 33 34 36 36 37 38 39 40 40 41 41 40 43 44 43 43 42
33 32 34 34 34 34 35 34 38 38 38 38 39 34 32 31 31 32 33 33 33 33 31 30 30 32 32 33 35 36 37 37 38 39 40 40 40 40 39 41 43 43 42 42
31 29 28 30 32 34 33 30 31 35 36 36 35 34 34 31 33 34 34 33 31 30 30 30 30 30 30 32 35 35 36 36 38 40 40 39 40 40 41 42 42 41 41 41
35 31 32 35 25 32 27 28 28 31 33 34 32 33 30 32 32 31 29 28 28 25 22 21 22 28 29 32 32 34 35 37 39 39 40 40 40 39 38 38 38 36 37 37
35 32 29 37 26 28 30 27 26 26 28 30 29 27 30 28 27 26 23 20 19 18 19 29 32 34 33 33 34 34 35 37 38 39 39 39 38 37 37 36 35 35 34 34
35 34 35 37 32 30 28 28 26 25 26 27 26 27 28 24 22 19 17 19 24 27 32 35 36 36 35 35 38 37 36 37 36 36 37 38 37 36 35 34 34 33 33 32
35 36 37 34 32 30 31 29 27 25 24 25 23 23 20 18 17 19 23 29 33 34 34 34 35 38 39 39 40 39 37 36 36 36 37 36 35 34 34 34 33 32 32 31
35 36 35 35 34 29 32 31 27 19 19 19 18 17 17 19 24 30 34 35 35 34 34 34 36 36 37 37 38 37 38 38 38 37 36 35 34 34 34 34 33 32 32 32
33 37 36 37 37 37 35 22 21 21 23 25 20 23 28 31 33 34 34 32 32 32 33 33 35 35 36 36 37 37 37 38 38 37 36 34 34 33 34 34 34 34 34 33
35 38 37 36 29 26 24 27 31 31 31 30 32 32 32 32 32 32 31 30 29 29 30 33 34 33 35 35 34 34 34 35 36 36 34 34 33 32 33 33 34 34 34 34
35 32 30 30 27 32 32 32 32 31 31 31 31 31 31 31 30 30 29 29 30 30 31 32 33 32 33 33 33 33 33 35 35 36 35 34 34 34 33 33 32 32 33 33
29 33 32 31 32 32 34 35 34 33 31 31 31 29 29 29 28 28 29 29 29 28 29 30 31 32 32 32 32 32 33 33 35 35 34 34 34 33 33 32 32 31 31 32
30 30 31 31 33 32 34 34 33 32 30 28 28 28 28 28 28 28 27 28 27 27 27 29 30 32 31 31 31 31 32 33 34 34 34 33 33 32 32 32 32 31 31 31
29 29 31 32 32 32 33 34 32 29 27 27 28 28 28 27 27 27 28 29 29 28 28 29 30 31 30 30 30 30 31 32 32 33 33 32 32 32 32 32 31 31 31 31
32 33 35 34 34 33 33 29 27 26 25 27 28 27 25 25 25 25 26 29 27 27 27 29 30 29 28 29 30 30 30 31 32 32 32 32 32 32 32 31 31 31 31 31
33 33 34 34 32 29 27 26 25 26 28 27 26 25 24 24 24 24 25 25 25 25 26 29 28 28 28 29 30 30 29 30 31 32 32 31 31 31 31 31 30 31 31 30
31 29 28 27 27 26 26 26 27 27 26 24 23 23 23 22 22 22 23 23 23 24 27 28 28 28 28 29 30 30 30 30 31 31 31 31 30 30 29 29 28 28 28 28
29 27 26 25 24 24 24 24 24 24 25 24 24 23 23 22 21 21 23 22 22 25 28 28 28 28 29 29 29 29 29 30 30 30 29 29 29 27 26 25 24 23 23 23
27 25 24 22 23 24 24 24 25 23 22 23 23 23 22 23 23 22 22 22 23 25 27 28 28 28 27 28 28 27 28 29 29 29 28 27 25 22 21 21 21 20 19 19
26 25 23 24 24 23 22 22 21 20 17 17 18 19 20 22 23 23 22 24 23 24 26 28 27 27 26 27 26 25 24 25 26 25 24 22 19 18 17 16 15 15 15 14
24 24 23 22 22 21 20 20 21 20 19 19 19 19 19 17 16 19 23 24 24 24 26 26 25 25 24 22 21 20 19 19 19 18 17 17 16 15 14 14 13 13 12 12
21 21 20 18 17 19 19 17 15 12 11 11 11 13 16 18 18 17 19 23 23 24 23 21 21 20 19 19 18 17 17 16 16 16 15 14 13 13 12 11 11 11 10 9
19 19 19 19 18 16 14 12 10 11 12 12 15 16 16 16 17 17 20 21 20 18 17 16 16 16 15 15 14 14 14 14 13 13 12 12 11 11 10 9 9 8 7 6
18 16 16 15 15 15 14 15 16 16 15 14 15 15 16 17 17 19 18 16 14 13 13 12 12 12 12 12 11 11 11 11 11 10 10 9 9 8 8 7 7 7 6 5

GFSNGP_sfc_30mbdewp_225.txt.gz
Dewpoint
34 34 34 33 33 33 30 29 29 30 31 32 34 34 35 36 36 36 35 35 37 40 40 37 35 36 38 39 39 39 38 37 36 39 39 39 40 41 42 43 43 44 45 45
34 36 36 35 36 36 34 33 33 33 33 35 36 36 36 37 38 37 36 36 36 35 36 34 35 37 38 38 37 38 34 33 37 37 38 39 40 41 42 42 42 44 45 44
34 38 37 35 38 37 37 37 36 35 35 36 36 36 37 38 39 40 40 39 36 32 32 35 37 37 35 32 35 35 36 37 37 38 38 39 40 40 40 40 41 43 44 44
35 37 30 36 38 38 38 38 38 38 37 38 37 38 39 40 39 39 39 37 34 32 35 37 37 35 33 32 33 35 36 36 38 39 38 39 40 40 40 40 41 41 42 43
34 33 35 36 36 36 36 35 38 38 38 39 39 39 40 38 36 37 37 36 35 35 36 35 34 33 33 34 35 36 36 37 38 38 38 40 39 39 41 41 42 42 43 43
32 30 29 31 33 37 37 33 36 37 37 38 39 36 36 37 35 33 34 35 34 34 33 32 33 34 32 32 34 34 36 37 37 39 40 39 39 40 41 40 40 39 39 40
35 33 35 36 32 36 31 31 34 35 37 38 36 37 35 33 33 34 32 32 31 30 29 30 30 29 26 30 31 36 36 37 38 39 39 40 40 39 39 38 37 37 36 37
36 34 31 38 33 32 33 30 29 31 35 36 35 33 32 32 32 30 28 27 25 23 22 26 28 31 31 32 35 37 37 37 38 39 39 39 39 39 39 37 36 35 34 35
37 36 38 36 35 34 31 29 27 27 27 29 30 29 31 30 28 25 22 21 21 23 32 36 37 36 35 37 40 40 38 38 37 37 37 39 38 37 37 35 35 34 33 33
36 38 37 35 36 32 31 30 28 27 27 28 27 28 30 28 23 20 23 27 30 32 34 35 36 38 39 38 39 38 38 38 38 37 37 37 36 36 35 35 34 33 33 32
35 36 36 37 37 33 33 37 35 29 27 27 26 25 24 21 22 27 32 34 35 34 34 34 36 36 36 37 37 36 36 37 38 37 38 37 36 36 35 35 34 33 33 32
33 37 37 37 37 35 37 39 36 28 23 22 22 22 23 26 31 33 33 34 33 33 33 33 34 35 36 36 36 35 35 36 37 37 37 36 35 34 35 34 34 34 34 33
36 40 40 40 37 35 35 35 29 26 25 25 28 29 30 32 34 33 32 31 30 30 30 31 34 34 35 34 34 33 32 32 34 35 35 34 34 33 33 33 34 35 34 34
37 36 34 33 33 31 30 31 31 31 31 32 32 32 32 32 32 31 30 30 30 30 30 32 33 33 33 33 32 32 32 33 34 35 35 34 34 34 34 33 33 33 34 34
33 36 36 33 32 32 32 31 30 31 31 31 31 31 31 30 30 30 29 29 28 28 28 28 29 30 32 33 32 32 32 32 33 34 34 34 34 33 33 33 33 33 32 32
29 30 30 31 32 32 32 33 32 33 33 32 31 31 30 29 28 29 28 28 27 27 27 27 29 32 32 31 31 31 32 32 32 33 33 33 33 33 32 32 32 33 32 32
29 29 31 32 32 33 35 35 34 33 32 32 31 29 28 28 28 27 28 29 29 28 28 27 28 32 30 30 30 30 31 31 31 32 33 33 32 32 32 32 32 32 32 33
31 31 32 33 34 33 33 32 32 31 31 31 30 28 26 26 25 26 27 29 27 26 27 28 30 30 29 29 29 30 30 30 31 31 32 32 32 32 32 32 31 31 32 32
34 33 34 35 35 34 32 31 31 30 30 29 27 26 26 25 25 25 26 25 24 24 26 28 29 28 27 28 30 30 29 29 30 31 32 32 32 31 31 31 30 30 31 31
31 32 32 31 31 31 29 29 28 27 27 26 24 24 24 23 23 23 23 24 25 25 26 28 29 29 28 28 30 30 30 30 30 31 31 31 31 31 31 30 30 30 30 30
29 28 27 26 25 25 25 25 25 24 24 23 23 23 23 23 22 21 22 23 24 24 25 27 28 28 28 28 29 29 29 29 30 30 30 30 30 30 29 28 27 27 26 26
26 24 24 24 24 24 25 25 24 24 24 24 24 24 24 23 24 23 22 24 26 25 25 26 27 28 28 28 27 28 27 28 29 30 30 30 29 28 27 26 24 23 22 21
25 24 24 24 24 23 23 22 20 19 18 18 19 20 20 22 22 23 22 24 24 25 25 27 28 27 27 28 27 27 27 26 27 27 28 27 25 24 23 22 21 19 18 18
24 24 24 23 22 21 20 21 20 18 17 17 16 16 17 17 18 17 18 21 22 24 24 25 27 26 25 26 24 23 23 23 22 22 21 21 20 19 18 17 17 16 15 15
23 21 20 19 19 20 18 16 14 13 12 12 14 16 18 18 19 19 20 21 20 22 25 22 22 21 23 22 21 20 19 19 19 19 18 17 17 16 15 15 14 13 12 12
20 19 19 19 17 16 14 13 12 14 16 16 17 17 17 17 17 18 19 20 20 19 18 18 18 18 18 17 17 16 16 16 16 15 15 14 14 13 12 12 11 10 10 9
19 18 17 15 14 15 15 17 17 17 16 16 16 15 13 14 15 16 17 16 15 14 14 14 14 14 14 14 14 13 13 12 13 12 12 11 11 10 10 9 9 8 8 7

GFSNGP_sfc_30mbdewp_228.txt.gz
Dewpoint
30 31 31 31 30 29 28 30 29 30 30 30 31 32 34 35 37 37 37 37 38 39 40 40 44 45 43 41 40 40 39 40 41 41 38 37 37 36 37 38 37 36 36 38
34 34 32 31 32 31 31 31 31 32 32 34 34 35 35 35 36 36 37 38 39 39 39 39 41 43 41 40 40 40 39 35 35 35 35 36 37 38 37 37 36 37 38 39
34 34 33 33 34 33 33 33 34 33 35 35 36 36 36 37 37 38 38 38 39 40 40 39 39 39 39 39 39 35 31 32 33 34 33 35 36 36 35 35 38 39 39 40
35 36 29 35 35 36 36 36 37 36 37 37 37 37 37 38 38 38 39 40 40 40 39 37 37 39 38 36 33 31 31 31 33 34 34 35 36 36 36 38 39 41 41 42
33 33 34 35 35 35 36 35 36 36 36 37 37 37 37 39 39 40 40 39 40 39 37 37 37 37 33 30 31 32 31 32 34 36 35 35 36 36 39 40 41 41 42 42
34 31 29 32 33 35 37 34 36 36 36 37 37 35 36 38 41 39 37 35 35 36 37 37 36 34 31 30 32 31 32 33 36 37 36 35 36 39 40 40 39 40 39 39
34 32 34 35 34 37 32 31 34 35 35 36 36 37 38 38 35 34 34 34 35 35 35 35 34 32 33 35 31 33 36 36 37 36 36 37 39 39 39 39 40 40 38 38
36 33 31 38 36 34 35 36 36 35 34 35 37 39 39 36 34 33 32 33 33 32 31 31 31 29 31 34 38 37 38 37 37 38 39 38 39 40 39 39 39 38 37 37
37 36 39 39 38 38 38 38 36 33 32 37 37 35 32 33 33 32 31 31 28 26 27 29 29 29 32 38 40 40 39 40 40 39 39 39 39 39 39 38 38 37 37 36
37 38 37 39 40 37 35 34 32 30 31 31 31 31 30 31 31 29 27 24 22 26 29 32 34 35 37 38 39 37 37 37 38 39 38 39 39 39 39 38 37 36 35 34
39 39 39 39 40 41 38 34 35 36 36 35 35 34 30 31 30 26 24 25 26 27 31 33 36 36 36 36 35 34 34 34 35 36 37 37 39 38 37 38 38 36 35 34
36 39 40 39 39 38 38 39 39 40 39 33 34 37 33 28 26 24 27 31 32 33 33 34 34 34 35 36 35 34 33 33 36 36 38 38 37 35 35 36 35 34 34 34
38 41 40 40 42 42 38 35 33 33 32 32 30 27 25 25 27 29 32 32 32 32 32 32 33 34 35 35 34 33 32 33 33 34 36 36 34 34 33 34 34 34 34 34
37 35 35 35 35 35 36 34 32 31 30 29 27 26 28 31 33 32 31 31 31 31 31 31 32 34 35 34 32 33 33 32 33 35 35 35 35 34 34 34 33 33 34 34
31 33 29 28 28 31 33 32 31 30 30 30 31 31 32 31 31 31 30 30 29 29 28 28 28 30 32 33 31 31 31 33 33 34 35 35 35 34 34 34 34 35 34 33
27 28 28 29 30 30 32 31 30 30 32 32 32 33 33 33 33 33 32 31 28 27 27 28 28 30 33 32 31 31 31 32 32 32 33 34 34 33 32 32 33 35 34 34
28 28 30 30 29 31 32 32 31 34 34 33 31 32 32 32 32 29 29 29 29 29 30 29 29 32 32 31 30 30 31 31 32 32 32 33 33 32 32 32 32 33 34 34
28 28 29 30 31 33 34 34 33 32 32 32 32 32 31 30 29 28 29 29 29 29 30 31 30 32 31 31 29 29 29 29 30 31 32 32 32 32 32 32 32 32 32 33
30 30 33 34 35 34 32 32 33 33 32 32 30 29 29 28 29 29 29 28 27 27 28 29 30 30 29 29 28 29 29 29 29 31 32 32 32 32 32 32 32 32 32 32
35 34 33 33 33 32 31 31 31 31 31 30 29 28 28 27 27 27 27 27 27 26 27 26 28 28 27 27 28 27 29 29 29 30 32 31 32 32 32 32 31 31 31 32
30 30 29 29 28 29 30 30 29 28 27 27 28 26 27 27 26 25 26 23 26 27 25 25 25 25 25 26 26 25 28 29 29 29 31 31 32 32 32 32 30 30 30 30
28 27 27 27 26 27 27 27 27 26 27 27 27 27 26 26 26 26 27 25 26 27 27 26 24 26 27 28 25 27 27 27 28 29 30 31 31 31 30 30 28 28 27 27
26 26 26 26 25 24 23 23 23 23 22 23 23 24 23 22 22 22 22 25 23 24 22 23 26 27 27 28 29 29 28 28 28 29 30 30 30 30 29 28 27 25 25 24
26 25 24 23 22 22 21 21 19 19 19 19 18 17 17 18 20 18 17 18 19 21 22 23 25 26 27 28 29 27 26 26 26 26 26 27 27 26 25 24 23 22 21 21
25 24 24 22 21 20 18 17 17 16 15 14 15 16 18 18 19 19 20 21 20 21 21 23 22 23 26 27 27 25 24 24 24 24 24 23 23 22 21 21 20 19 18 17
22 22 21 20 19 17 16 14 13 15 13 15 16 19 19 19 18 18 19 19 18 18 19 20 21 22 23 23 22 22 21 20 20 20 20 19 18 18 17 16 15 15 14 14
20 19 17 16 14 14 13 13 14 15 16 17 16 17 16 17 17 16 16 17 17 17 17 17 18 18 19 19 19 18 17 16 17 17 17 16 15 15 14 13 13 12 12 11

GFSNGP_sfc_30mbdewp_231.txt.gz
Dewpoint
27 27 26 26 27 28 27 29 28 29 28 29 30 31 32 33 34 35 35 36 38 38 39 39 40 41 45 45 43 44 44 43 44 46 44 44 42 38 37 37 36 35 34 34
30 29 29 29 29 30 30 30 30 30 30 32 32 32 33 34 34 34 35 36 37 38 39 39 39 40 41 45 44 44 43 42 42 43 42 39 38 37 36 36 33 35 35 37
35 34 33 33 34 33 33 33 32 31 33 33 33 33 34 34 36 36 36 37 38 39 39 40 40 40 40 44 46 43 42 40 41 39 36 36 36 35 34 33 34 35 37 39
36 37 30 34 34 33 33 33 34 33 34 34 34 35 35 36 36 36 36 37 38 40 41 41 41 41 41 42 43 42 40 37 35 35 33 34 34 33 34 34 35 38 40 41
33 33 35 35 34 33 32 32 34 35 35 35 35 35 36 36 37 37 38 40 41 40 40 40 40 39 40 41 41 40 35 32 31 32 33 33 33 33 34 37 39 39 39 39
34 31 29 32 32 35 35 33 35 34 35 35 35 34 34 36 37 38 40 39 36 35 36 38 39 39 39 39 36 33 31 31 32 33 32 32 32 33 38 38 38 39 39 40
34 32 34 35 33 34 31 30 34 35 35 35 34 35 35 39 39 39 36 34 34 35 35 37 39 39 36 35 33 31 32 32 34 34 33 32 33 36 38 38 40 40 40 40
36 33 31 36 34 33 35 37 35 36 37 36 36 36 36 40 39 36 34 33 33 34 35 37 37 35 34 40 37 35 35 35 35 36 35 34 36 37 38 39 39 39 39 39
37 36 38 38 38 37 37 38 37 37 38 38 36 36 37 37 34 33 33 33 33 32 34 34 33 33 34 37 35 38 38 39 39 39 39 39 40 39 40 39 39 39 37 37
39 38 38 38 39 40 39 40 40 40 37 35 33 34 32 33 33 33 32 32 31 30 29 29 28 28 34 36 38 38 40 39 40 39 38 40 39 40 39 39 39 37 36 35
39 40 41 41 42 44 45 42 40 36 35 35 35 35 35 36 35 33 32 30 28 27 29 30 32 36 37 37 36 34 34 34 35 35 37 37 39 40 39 39 40 37 37 36
36 40 40 41 42 42 40 39 39 40 41 41 40 38 38 38 39 37 34 28 26 27 29 33 34 34 36 36 34 34 33 33 34 36 36 37 37 38 37 37 37 36 35 34
34 41 40 40 41 40 42 42 41 41 39 38 35 32 32 32 34 31 28 27 30 33 34 34 34 35 36 36 34 34 32 32 33 34 35 35 36 36 34 35 35 34 34 33
30 41 38 34 32 34 34 34 33 35 33 30 29 29 29 28 28 28 30 31 33 33 33 33 35 35 35 34 33 34 33 32 32 34 35 36 36 35 35 34 34 34 35 34
25 32 33 30 29 28 28 28 33 33 32 31 31 30 29 31 31 31 32 31 30 30 31 30 31 32 33 33 32 31 31 32 34 34 35 35 35 35 35 34 34 36 36 34
23 25 25 25 27 27 27 28 31 32 31 32 32 32 32 32 31 31 32 34 34 33 31 30 29 31 33 32 32 32 32 31 31 33 33 33 34 34 33 33 33 34 35 35
26 27 27 26 27 29 28 29 31 31 33 34 34 34 34 34 34 33 34 33 32 32 31 31 30 32 33 32 31 31 31 30 32 32 32 33 33 33 33 32 32 32 35 36
25 26 26 26 27 29 35 36 36 35 33 33 33 33 32 33 32 32 32 32 32 30 31 32 32 32 32 31 30 30 30 30 30 31 32 33 33 33 33 32 32 33 34 34
29 28 34 35 36 36 34 33 33 32 32 33 33 31 31 31 31 31 31 30 29 28 31 31 30 30 29 30 27 28 29 29 29 29 31 33 32 33 33 33 33 33 33 33
35 34 33 32 33 32 31 32 32 32 33 32 31 30 29 29 29 29 29 28 29 29 27 26 27 27 27 27 26 25 27 27 28 28 31 32 32 32 33 33 33 33 33 33
31 32 32 31 30 31 31 31 31 30 30 31 30 29 28 28 28 27 28 23 29 26 25 25 25 24 24 25 27 26 27 28 28 27 29 31 31 32 33 33 33 32 31 31
32 30 30 30 29 29 29 29 28 29 28 28 28 27 28 27 28 28 28 25 27 27 27 26 26 28 27 26 24 28 27 26 28 28 28 30 31 31 32 32 31 30 30 29
28 28 28 27 26 25 25 25 26 26 25 25 24 24 23 22 22 22 22 28 23 23 21 21 26 25 27 28 27 29 29 28 29 29 30 30 30 31 32 31 30 29 28 27
27 27 26 25 24 23 21 21 20 20 21 21 20 20 18 18 21 18 18 19 21 23 22 22 24 24 24 26 28 29 29 28 27 28 28 27 29 30 29 28 27 26 25 23
26 26 24 24 22 21 19 18 18 17 16 16 16 16 17 17 17 17 19 19 20 19 19 22 23 22 23 25 27 28 28 27 26 26 26 26 26 26 26 25 24 23 21 20
24 24 23 22 21 19 17 16 16 16 14 15 18 18 19 19 18 17 19 21 20 19 21 21 21 23 25 25 25 25 24 23 23 22 22 22 21 21 20 20 19 18 17 17
22 21 19 18 17 16 14 13 15 15 15 17 18 17 17 19 18 17 17 17 18 19 19 18 19 20 22 22 21 20 20 19 20 19 19 18 18 17 17 16 16 15 15 15

GFSNGP_sfc_30mbdewp_237.txt.gz
Dewpoint
28 28 25 23 22 20 19 20 21 23 24 26 30 34 34 36 36 36 36 37 37 38 38 38 40 42 44 49 52 58 59 58 58 56 52 51 51 50 49 48 45 41 39 38
25 28 26 25 24 23 23 23 24 25 26 29 30 31 32 33 34 35 35 35 36 38 39 38 39 43 44 44 48 52 55 53 53 52 51 50 49 48 45 42 40 38 39 40
25 29 30 26 27 26 26 27 27 26 27 32 32 32 33 34 35 35 36 37 36 37 39 42 42 44 44 44 47 50 52 52 51 51 50 49 46 44 41 39 39 38 40 41
27 31 25 27 29 29 34 35 33 33 33 34 34 35 36 37 36 36 36 37 38 40 42 43 43 43 44 43 44 48 49 49 49 49 47 45 42 41 40 39 39 39 42 42
32 31 30 31 31 30 30 28 32 34 35 36 35 35 36 38 40 40 40 40 41 43 43 43 43 43 42 42 46 46 46 45 46 45 43 41 40 38 39 38 40 41 41 41
34 32 25 27 31 33 36 33 38 37 37 37 39 36 38 40 41 39 39 39 40 41 41 41 41 41 41 41 44 45 45 44 43 41 41 39 38 38 39 40 40 40 40 40
32 31 31 34 34 34 30 33 42 41 41 40 39 41 42 43 40 36 35 35 36 36 37 39 41 41 41 42 42 45 45 41 40 38 38 38 38 39 40 40 40 40 40 40
34 33 30 37 36 34 39 44 43 43 42 41 41 40 40 40 40 37 35 35 34 34 36 39 41 41 42 41 42 40 39 39 38 36 37 37 37 39 40 40 40 39 39 38
35 34 38 40 44 44 43 42 41 42 42 42 42 42 42 42 42 43 42 36 35 34 38 39 40 41 39 40 39 39 39 39 38 39 39 39 39 39 40 40 39 39 38 38
40 41 40 42 41 39 40 39 41 42 43 43 43 43 43 43 43 44 45 45 46 45 37 36 38 40 39 40 41 40 39 39 38 38 38 39 40 40 39 39 38 38 37 36
40 42 40 41 38 36 39 41 40 43 43 43 44 43 44 44 44 44 44 45 45 46 42 39 38 39 39 40 40 39 40 39 38 38 38 38 38 37 37 37 38 38 38 36
33 39 38 36 35 38 38 37 39 41 42 44 43 41 44 43 42 41 41 41 40 44 41 39 38 37 38 39 40 39 39 39 40 39 39 39 39 39 39 39 38 38 39 37
30 28 29 29 28 39 39 37 38 40 41 41 41 41 42 39 34 36 34 35 37 37 39 38 38 37 37 38 37 36 36 36 36 36 36 37 37 36 36 36 37 36 36 36
24 24 23 26 26 28 31 36 32 29 31 36 33 33 32 32 33 34 35 36 37 37 38 37 36 36 37 36 34 34 33 33 34 35 35 35 35 35 35 35 34 34 34 34
24 25 24 25 28 28 31 30 26 29 32 34 34 33 33 33 33 34 35 34 35 36 36 35 34 34 36 36 35 36 36 35 34 34 35 34 34 33 34 34 34 34 34 33
29 30 30 29 29 30 30 33 33 33 34 34 33 33 34 35 33 33 33 34 33 31 31 31 31 31 33 33 33 34 34 34 34 33 32 33 32 33 33 33 33 33 33 34
26 26 28 33 36 36 36 36 35 35 34 33 33 34 34 33 32 31 31 32 31 31 31 31 31 32 32 32 32 32 33 33 32 32 32 32 32 32 32 32 32 32 33 34
36 35 35 36 35 33 33 33 33 32 32 32 32 32 31 31 30 30 30 31 30 29 31 31 31 31 31 31 31 30 30 30 30 30 31 32 32 33 32 32 32 32 32 33
33 33 33 33 33 33 32 31 32 32 32 31 30 29 29 29 29 28 29 28 28 29 29 30 30 29 30 31 29 28 28 28 28 28 28 30 31 32 32 32 32 32 33 33
32 32 31 31 32 31 30 31 30 30 30 29 29 27 26 27 27 26 26 27 28 27 28 28 27 29 27 29 30 28 28 27 27 26 27 27 29 30 30 31 32 32 32 32
30 30 29 29 29 29 29 28 28 27 27 27 26 25 25 26 25 26 27 28 27 24 27 29 27 26 26 25 27 31 31 31 30 26 25 24 25 27 26 29 31 32 32 32
29 29 29 28 28 28 28 27 26 26 24 22 20 20 23 23 23 27 24 26 24 20 22 26 24 23 23 22 25 26 28 27 27 28 26 26 27 28 28 29 30 31 32 31
29 28 27 26 26 26 26 24 22 17 15 14 17 18 20 21 22 21 21 23 22 20 23 21 22 21 20 20 21 22 25 26 25 27 27 26 27 27 27 27 30 30 29 28
27 26 26 25 24 23 22 21 21 19 17 18 18 18 19 18 18 21 21 21 20 19 20 22 19 18 19 21 22 22 24 25 27 26 26 27 27 26 26 25 24 24 23 23
26 26 26 24 21 21 20 20 20 19 22 21 21 20 20 20 18 20 20 20 20 20 19 19 20 20 23 21 21 22 23 22 22 21 21 20 19 19 18 18 19 19 19 19
26 25 23 23 21 19 18 21 18 19 22 21 20 19 19 19 18 19 18 19 19 19 19 18 19 20 20 20 19 18 18 18 18 17 17 16 16 16 15 15 16 16 16 16
24 22 21 20 18 19 19 20 18 16 17 19 18 17 17 17 17 17 17 17 17 17 17 18 17 17 17 17 17 17 17 16 15 14 14 14 14 13 13 14 14 14 14 14

GFSNGP_sfc_30mbdewp_240.txt.gz
Dewpoint
27 25 26 25 25 24 22 21 19 19 19 21 24 27 30 33 34 35 36 37 38 38 39 39 43 47 53 56 59 60 60 61 61 61 61 58 55 53 51 50 50 49 46 43
26 28 27 26 26 26 25 24 23 21 21 24 24 26 28 31 33 33 34 36 36 37 38 39 39 40 44 49 54 60 60 60 61 61 58 55 52 51 50 49 47 44 41 40
25 28 27 24 26 26 25 25 24 21 23 27 30 32 34 35 36 36 36 35 36 37 38 38 39 40 41 44 48 53 57 58 57 57 55 53 50 49 49 46 43 40 40 40
27 27 23 26 26 25 25 31 34 33 32 33 35 36 37 38 39 40 40 40 40 39 39 41 43 43 44 46 47 49 51 53 53 53 52 50 49 47 45 42 40 40 40 41
28 27 26 27 30 29 29 28 30 34 37 37 38 40 39 40 42 41 39 41 43 44 44 44 44 45 44 43 44 46 46 49 51 51 49 48 46 44 42 40 40 41 42 42
33 28 22 24 27 30 31 28 41 40 39 39 38 36 38 40 39 38 36 35 35 37 39 41 42 42 42 43 46 45 45 47 49 48 47 45 43 42 40 40 41 42 42 42
29 28 28 32 31 33 28 29 42 41 41 39 38 39 40 42 42 42 40 41 39 37 37 40 42 42 41 42 42 45 46 45 44 44 44 43 41 40 40 41 41 41 40 40
31 29 27 35 34 29 37 43 42 41 41 40 40 41 41 41 41 42 43 43 44 38 39 39 41 41 40 40 41 41 43 42 40 41 40 40 40 40 41 40 39 39 39 39
30 29 38 44 41 42 41 39 39 41 41 42 41 41 42 42 42 43 44 44 45 43 38 39 40 40 39 40 40 39 39 39 39 39 39 40 40 40 40 40 38 38 37 37
33 34 40 43 41 40 41 41 41 43 41 43 41 42 43 43 43 44 45 45 46 45 42 38 40 40 40 41 41 40 39 39 39 39 39 40 40 40 39 39 39 38 38 37
36 40 42 41 40 41 42 43 43 43 43 42 43 41 42 42 42 42 42 43 43 42 44 42 39 39 40 41 41 40 39 39 39 38 38 38 37 37 38 38 38 37 37 37
35 39 38 38 42 38 38 40 41 39 40 41 43 42 41 41 42 41 38 40 40 39 41 43 39 38 38 39 40 40 39 39 39 40 39 38 38 39 38 39 39 38 38 38
37 41 41 38 35 32 34 39 39 39 39 36 39 41 41 40 32 34 36 37 37 38 37 36 36 36 36 36 36 37 38 38 37 37 37 37 37 37 36 37 37 37 36 37
29 26 24 25 23 26 29 31 34 30 34 36 33 33 33 33 34 34 35 36 37 37 36 35 34 34 35 36 36 35 35 34 34 34 33 33 34 34 34 34 34 34 35 35
26 28 27 27 29 30 31 31 32 33 34 33 34 34 34 33 32 32 34 35 35 34 33 32 31 31 32 33 32 32 32 32 32 33 33 33 32 32 32 33 33 33 34 34
28 30 30 32 35 36 35 35 34 34 33 33 33 32 32 32 32 32 32 33 31 30 30 30 30 31 32 32 33 32 32 32 32 32 32 32 32 32 32 32 32 33 33 33
24 27 34 35 34 34 33 34 33 33 33 32 32 32 32 31 31 30 30 30 30 30 30 29 28 30 30 31 32 31 32 32 32 32 31 32 32 32 32 32 31 32 32 33
35 35 34 34 34 33 32 32 32 32 31 31 31 30 29 29 28 28 28 28 28 28 28 29 29 29 30 30 29 29 29 30 29 29 29 30 31 32 31 31 31 31 32 33
33 32 31 32 32 32 32 31 31 30 30 29 28 26 26 26 26 26 27 28 27 26 27 29 28 28 27 28 29 29 27 28 27 27 26 26 29 30 31 31 31 32 32 32
31 31 31 31 31 31 29 30 30 29 29 27 24 23 23 24 24 24 26 25 24 26 29 27 26 25 25 24 27 31 30 30 29 28 26 24 25 26 27 27 28 30 32 32
30 30 29 29 29 29 29 28 27 26 26 25 25 24 23 23 23 25 25 22 22 21 25 24 23 22 23 20 22 25 26 27 27 27 27 25 24 26 26 27 27 30 31 31
29 29 28 28 27 27 26 26 25 22 18 18 20 20 21 22 23 22 22 21 21 20 23 22 21 19 18 17 19 20 22 24 25 24 26 26 25 24 25 25 25 28 31 31
29 29 27 26 26 26 25 21 15 14 16 17 17 19 20 20 21 18 18 20 20 20 21 20 17 17 20 20 20 20 20 22 23 23 24 26 25 25 25 26 27 28 29 28
27 26 26 25 23 20 19 19 18 17 17 18 18 18 17 15 18 20 20 19 18 18 17 18 18 20 19 20 19 21 21 22 21 20 19 18 18 18 18 19 19 20 20 21
27 25 24 24 22 22 21 21 21 21 22 21 20 19 19 19 17 18 18 18 18 17 15 16 17 18 17 16 16 16 16 16 16 16 15 15 15 15 15 16 16 17 16 16
26 26 25 24 21 21 21 21 21 21 20 18 17 16 16 16 17 16 16 16 15 15 16 14 15 15 15 15 15 14 14 14 13 13 13 12 12 12 13 13 13 13 13 13
24 21 19 19 20 20 20 18 17 19 18 16 15 15 15 14 14 15 14 13 13 13 12 13 13 13 13 13 13 13 13 12 12 12 11 11 11 11 11 11 11 11 11 11

GFSNGP_sfc_30mbdewp_246.txt.gz
Dewpoint
24 22 23 20 21 25 25 25 24 24 23 23 25 24 24 26 30 36 38 39 40 42 43 44 43 42 43 44 49 54 55 56 56 57 58 59 59 59 59 59 58 57 57 56
26 27 26 24 24 22 23 22 22 22 21 24 24 26 27 33 37 40 41 39 39 40 42 43 43 44 45 46 45 47 51 55 57 58 58 58 58 58 57 57 57 56 55 55
25 29 28 25 24 25 24 25 23 21 24 25 25 30 33 37 40 41 36 35 35 36 40 41 42 43 44 46 48 49 51 53 56 58 58 58 58 57 57 56 55 55 54 53
27 27 23 26 29 28 27 27 27 26 26 27 31 36 38 39 37 36 36 36 36 37 39 41 42 41 42 42 43 43 44 45 47 50 54 56 55 55 55 53 53 52 52 50
27 25 26 27 29 26 25 24 28 26 29 37 40 39 38 39 39 38 39 40 40 39 39 40 41 42 41 40 40 41 42 44 45 47 48 50 50 51 51 50 49 48 47 46
30 26 24 26 28 31 27 21 29 31 35 38 38 36 38 41 42 42 43 43 44 44 41 40 40 41 40 40 39 39 41 43 44 44 45 46 47 47 47 47 46 45 44 44
28 25 26 29 31 30 21 21 37 38 39 39 38 38 40 42 42 42 43 43 44 45 44 41 40 41 39 39 39 41 41 42 41 41 41 42 44 44 43 44 43 43 42 43
28 25 23 31 33 24 30 42 41 41 40 38 39 39 41 42 42 42 42 43 43 44 42 42 41 40 40 40 41 41 40 40 40 40 40 41 41 42 43 43 42 41 41 40
28 26 34 41 38 41 42 41 40 38 37 38 38 39 40 41 42 42 43 42 42 42 41 42 40 39 38 39 41 40 39 38 38 39 39 40 40 40 40 40 39 36 36 36
30 37 39 39 39 40 40 40 41 40 39 40 40 41 42 41 39 42 41 39 39 38 38 36 36 36 36 37 40 39 39 38 38 38 37 37 37 37 37 37 36 35 34 33
35 39 39 39 39 39 40 40 40 40 40 40 40 40 41 40 42 40 37 37 37 36 35 35 35 35 36 36 37 38 37 37 38 38 37 36 35 35 35 35 37 36 37 37
30 38 36 37 39 37 36 35 37 39 39 40 41 40 41 40 36 36 36 35 34 34 34 35 35 35 35 36 36 35 34 34 34 34 34 33 33 34 35 36 36 36 37 36
37 39 40 41 39 38 37 36 36 37 39 40 37 39 39 34 35 34 34 34 34 35 34 34 33 32 33 35 34 34 32 33 33 33 32 32 32 31 31 33 35 36 36 36
41 39 39 40 35 39 37 37 38 37 35 35 34 34 34 33 33 33 33 34 34 34 33 32 30 29 30 32 32 32 32 32 31 31 30 30 31 29 29 29 29 31 33 34
38 30 31 35 34 33 35 34 33 33 33 33 33 33 32 32 32 32 33 33 31 29 27 28 27 28 30 31 31 31 31 30 30 30 30 30 30 29 30 32 31 31 33 34
34 34 33 33 34 34 33 33 32 31 31 32 32 31 32 32 31 30 29 28 27 26 25 25 25 27 28 28 29 29 29 29 29 29 29 29 29 30 31 31 31 31 31 31
31 32 32 32 33 33 33 33 33 32 32 32 32 32 31 29 27 26 26 26 26 25 25 26 26 26 25 24 28 28 28 27 25 25 24 25 28 28 27 27 27 28 30 32
33 33 33 33 32 32 32 32 31 31 30 30 29 28 27 26 25 25 25 24 24 25 26 26 25 24 22 21 21 24 26 28 29 29 28 26 25 26 26 26 26 26 26 28
33 33 33 33 33 32 30 30 29 29 28 27 25 23 23 23 24 24 22 20 21 22 23 22 21 20 18 18 19 18 19 21 22 25 28 28 26 25 24 24 25 25 25 26
32 33 32 32 31 30 28 28 28 26 24 22 21 22 22 23 24 22 21 19 20 20 22 20 19 18 19 19 19 19 20 20 20 21 22 24 24 24 23 23 22 23 24 25
30 30 29 29 28 28 28 27 24 22 21 21 22 21 20 19 19 21 19 17 19 18 19 19 19 18 18 18 19 19 19 19 20 19 19 20 21 22 23 20 20 21 22 23
29 28 28 27 27 26 26 25 23 23 20 19 19 19 18 18 18 18 18 17 18 16 18 17 16 14 14 15 16 17 17 17 18 18 19 19 19 20 20 20 20 20 21 23
29 28 28 27 26 25 20 18 18 18 17 16 16 16 18 18 18 15 14 17 15 14 15 14 12 11 11 12 12 11 12 12 12 13 13 13 13 13 14 14 15 15 15 15
28 27 27 26 22 18 17 17 17 16 15 15 15 14 14 13 15 17 17 15 12 12 11 11 10 10 9 9 9 10 10 10 10 10 10 10 10 11 11 11 11 12 12 12
27 26 25 22 18 17 18 18 20 19 18 17 17 16 16 16 13 13 12 12 11 9 8 8 8 8 7 8 9 9 9 9 9 9 8 8 8 8 9 9 9 9 9 9
26 25 23 21 20 20 20 21 19 17 15 14 13 12 12 12 11 10 9 8 7 6 6 5 5 5 5 6 6 7 8 7 7 7 7 7 7 7 7 7 8 8 8 9
24 23 22 22 22 21 20 20 18 17 14 12 12 10 11 9 9 8 6 5 4 4 3 3 3 3 3 3 4 5 5 5 5 6 6 6 6 6 7 7 8 8 8 8

GFSNGP_sfc_30mbdewp_249.txt.gz
Dewpoint
23 21 21 20 19 24 25 25 23 23 24 26 27 28 27 28 34 39 41 38 38 40 42 41 42 42 43 46 48 51 53 55 57 58 58 58 59 60 61 61 61 61 60 60
24 27 25 22 22 22 24 25 27 26 26 29 28 27 26 33 39 41 37 36 36 38 40 41 41 42 42 43 45 46 46 47 49 53 57 59 59 59 59 59 59 59 58 58
26 28 28 25 24 25 25 25 25 23 25 26 25 26 33 39 40 37 36 36 37 38 40 40 42 42 42 42 43 43 44 44 45 47 48 51 54 56 56 56 57 57 57 57
31 28 23 27 29 27 25 26 26 25 26 27 29 37 39 40 37 36 37 39 41 41 41 42 42 42 42 41 41 42 42 42 43 44 44 46 47 49 50 52 53 53 54 54
32 28 28 28 28 28 28 26 29 27 28 35 38 38 38 38 38 39 41 43 44 44 42 41 40 41 41 41 41 41 41 41 42 42 42 43 44 46 47 47 48 49 50 49
32 31 28 28 28 29 27 23 29 29 33 38 38 30 37 41 42 42 43 43 42 44 40 39 41 41 41 41 41 41 41 41 41 41 41 42 43 43 44 45 45 46 46 46
31 32 31 31 30 30 24 25 28 32 37 39 37 39 41 42 42 42 42 41 43 42 41 41 41 41 41 41 41 41 41 40 40 40 40 41 42 43 43 44 44 44 43 43
30 31 28 30 31 26 30 40 38 39 40 40 41 41 41 42 41 42 42 42 42 41 40 38 38 39 39 39 40 40 40 40 39 40 40 40 41 41 41 42 40 38 37 37
29 29 34 39 37 40 42 40 41 40 40 40 39 39 40 42 42 42 40 39 39 38 37 37 37 37 37 38 40 40 40 39 40 39 38 39 39 39 38 37 35 34 33 33
28 36 36 39 40 41 41 40 39 39 39 39 40 41 40 38 41 40 37 37 37 37 36 35 36 36 36 36 37 37 36 38 39 38 37 37 37 37 36 36 36 35 35 35
29 38 38 38 39 40 40 39 39 39 39 39 39 39 38 41 38 37 36 36 36 35 35 35 35 34 35 35 36 35 35 35 36 36 35 35 35 34 34 35 35 35 35 36
30 37 36 37 40 41 39 39 39 40 41 42 42 40 40 37 37 36 35 35 33 34 34 34 32 31 32 33 34 34 33 33 33 33 33 33 32 32 33 33 34 36 36 35
34 40 40 40 39 37 37 37 38 39 40 39 37 39 36 35 34 34 33 33 34 33 32 31 30 30 30 31 32 32 31 31 31 31 30 31 30 30 29 31 31 32 33 34
41 40 39 38 37 39 37 38 36 35 35 35 35 35 34 33 33 33 33 32 30 30 29 28 27 27 30 31 30 30 29 29 30 30 29 28 29 30 31 31 31 32 33 34
31 37 39 36 38 39 37 36 34 34 34 33 34 33 32 32 30 30 31 30 28 27 26 26 26 27 28 29 29 29 28 28 28 29 29 28 28 30 30 31 31 31 32 33
33 35 35 33 34 34 34 34 32 32 32 32 32 32 31 30 29 28 27 26 25 25 25 26 25 23 24 23 26 27 28 29 28 26 25 25 26 28 26 26 26 26 26 30
33 32 33 33 33 33 33 33 33 32 32 31 31 30 28 28 27 25 25 25 25 25 25 24 24 22 22 20 19 21 23 23 25 27 28 28 27 27 26 26 26 25 26 27
34 34 34 33 33 32 32 32 31 31 30 29 28 27 26 26 25 24 24 24 23 22 21 20 20 20 19 20 20 20 18 18 18 19 21 25 27 28 27 27 25 25 25 25
33 33 33 33 33 31 30 29 29 28 27 26 24 23 24 25 23 21 20 19 19 18 19 18 18 18 19 20 20 20 20 20 20 19 19 19 20 22 25 26 25 25 24 24
32 32 32 31 31 29 28 28 27 25 24 23 23 23 23 24 23 22 20 17 16 17 17 17 17 16 17 17 19 18 19 19 18 18 18 18 19 20 22 24 22 23 24 23
30 30 29 29 28 27 25 23 21 20 22 23 22 20 19 18 17 18 15 14 15 17 17 16 15 13 13 15 15 17 17 17 17 17 17 17 18 18 19 20 20 21 20 21
29 28 28 27 26 25 25 24 22 21 21 21 19 17 17 17 17 16 16 15 15 15 15 13 12 11 11 13 13 14 13 13 14 14 14 14 15 15 15 16 16 16 16 17
28 27 27 26 24 23 22 20 18 17 16 16 16 17 15 15 15 13 13 14 13 13 12 12 10 9 11 12 12 12 11 11 11 11 12 12 12 12 13 12 13 14 13 14
28 27 25 22 21 20 18 16 15 15 15 15 14 15 14 14 15 15 14 12 11 11 10 9 9 8 10 11 10 10 10 10 10 10 10 10 10 10 10 10 10 11 11 11
27 25 23 20 18 18 17 17 17 16 15 14 14 15 14 14 13 13 12 11 9 9 9 6 6 7 9 9 9 9 9 8 8 9 8 8 8 8 9 9 9 9 9 10
26 24 22 19 19 19 20 19 17 15 14 13 13 14 14 13 11 10 9 8 7 7 7 7 6 7 7 7 7 7 7 7 7 7 7 8 8 7 8 8 8 8 9 9
25 23 21 20 20 20 20 19 17 15 14 13 12 12 11 11 9 8 7 7 6 6 6 5 5 4 5 5 5 5 6 6 5 6 7 7 7 7 7 7 7 7 8 7

GFSNGP_sfc_30mbdewp_252.txt.gz
Dewpoint
26 25 24 21 19 21 22 23 19 19 16 15 22 30 32 31 35 38 37 39 41 42 42 41 42 43 43 44 44 45 45 45 46 48 49 52 55 58 59 60 60 60 61 61
27 26 25 23 21 19 18 22 21 19 18 20 26 31 31 32 35 35 36 38 38 40 40 41 42 43 43 43 43 44 43 43 44 44 45 47 49 50 52 54 56 57 58 59
29 28 25 25 26 22 19 20 21 20 22 24 29 29 28 34 35 36 37 37 38 39 42 43 43 43 42 42 42 42 42 42 42 42 42 44 45 46 47 49 50 51 52 54
33 31 27 32 31 27 24 23 25 24 24 27 28 29 36 37 38 37 37 38 41 42 43 41 39 39 39 39 40 41 41 41 41 41 41 42 43 43 44 45 46 47 48 49
31 32 32 31 30 27 27 26 26 26 26 29 35 37 37 38 38 38 40 43 43 42 40 40 39 39 38 38 39 39 40 40 41 41 41 41 42 42 43 44 44 45 45 46
33 30 26 28 31 30 29 27 27 29 30 35 36 27 31 39 40 42 41 40 41 39 39 39 40 40 40 40 40 40 40 39 40 40 40 40 41 41 42 43 43 44 43 44
33 31 31 30 31 31 26 27 29 32 37 38 34 37 41 41 41 40 39 40 40 39 38 38 39 39 40 40 40 40 40 40 40 40 39 39 41 40 40 41 40 39 38 38
34 32 29 31 31 29 31 40 38 39 40 40 42 42 42 41 39 40 40 40 39 37 37 38 38 38 38 38 40 40 40 39 39 38 38 39 39 39 39 38 37 36 36 36
35 34 37 35 31 37 40 40 40 41 43 42 42 41 40 40 40 39 38 37 37 37 37 37 37 37 36 37 37 37 37 37 37 38 38 38 38 38 38 38 37 36 37 37
32 32 35 37 40 41 41 41 41 42 41 41 40 40 40 40 39 38 37 37 36 36 35 35 36 35 35 35 36 36 35 35 36 36 36 36 36 36 35 34 34 35 36 36
32 37 38 39 40 42 41 40 40 39 39 39 40 38 38 40 38 37 36 36 35 34 34 34 33 33 33 34 34 34 35 35 34 35 35 35 34 34 33 34 33 33 33 34
31 33 33 37 41 41 40 38 38 39 39 39 39 38 40 38 37 36 35 35 33 33 32 31 30 31 31 32 32 32 30 32 32 31 31 31 31 31 33 32 31 32 33 33
30 39 38 41 42 40 39 39 40 40 40 40 40 38 37 36 35 34 34 33 32 31 30 28 28 28 29 29 29 29 28 28 30 29 29 29 29 30 30 34 35 34 33 34
41 41 40 40 38 39 39 39 39 39 38 38 37 36 35 34 34 33 31 31 29 28 27 27 26 27 28 29 29 29 29 28 29 29 29 29 28 29 31 30 30 30 32 34
38 39 39 39 39 38 37 36 36 35 35 36 35 35 34 33 31 30 29 28 27 26 25 25 24 24 25 25 25 26 26 27 27 27 27 27 27 27 27 27 26 26 27 28
36 38 39 38 37 36 36 35 34 34 34 34 33 32 30 29 28 27 27 26 25 24 24 24 24 22 22 21 21 22 23 24 24 24 26 26 26 25 26 26 26 27 26 26
36 35 35 35 35 34 34 34 34 33 32 31 30 29 28 27 26 25 25 25 24 23 21 21 21 21 21 20 19 20 20 19 19 18 18 19 23 28 27 26 27 27 26 27
36 35 35 35 34 34 33 33 32 32 30 30 30 29 27 26 24 24 25 24 22 20 19 19 20 19 19 19 19 18 18 17 17 17 18 18 18 18 20 25 27 25 26 27
35 35 35 34 34 32 31 30 29 29 28 28 27 26 25 24 23 22 21 19 17 16 17 17 17 15 14 17 18 16 16 16 16 16 19 19 20 19 19 21 25 22 23 24
34 33 33 32 31 30 28 28 27 27 26 26 25 24 23 24 22 20 17 16 16 16 16 15 13 12 12 13 15 15 16 16 16 17 17 17 19 19 20 20 21 21 22 22
31 31 30 29 27 27 26 26 25 25 25 25 24 23 22 22 20 18 14 13 15 15 14 13 12 11 11 13 13 16 15 15 15 15 16 16 16 17 17 18 18 18 18 18
30 29 27 27 25 25 25 25 24 23 22 21 19 18 17 16 16 16 16 14 14 15 13 12 11 12 13 14 14 15 14 14 14 14 14 14 14 14 15 15 15 16 16 17
29 27 27 26 24 24 23 23 22 19 18 18 18 16 14 14 13 13 12 12 12 13 11 12 11 12 14 15 15 14 13 13 13 13 13 13 13 13 13 13 14 14 14 14
27 26 25 24 22 19 17 16 15 17 18 17 17 16 14 15 13 12 12 12 13 13 12 11 11 12 13 14 14 13 12 12 12 12 11 11 12 11 12 11 11 12 12 13
25 24 24 22 19 17 16 15 15 14 13 12 13 13 14 14 15 14 14 12 12 12 13 10 11 11 13 13 12 11 11 11 10 11 10 10 10 10 10 10 10 10 11 11
25 24 22 21 19 18 18 18 18 16 14 14 15 16 15 13 13 12 12 11 11 11 12 11 11 12 12 11 11 10 10 9 10 10 10 10 10 9 9 9 9 10 10 10
25 23 21 20 20 20 20 20 18 15 14 14 14 15 14 14 12 12 12 12 12 11 11 11 10 9 10 10 10 10 10 10 8 9 9 9 9 9 9 9 8 8 8 8

GFSNGP_sfc_30mbdewp_255.txt.gz
Dewpoint
31 31 27 24 24 23 20 20 20 21 20 20 20 20 30 34 31 34 37 38 41 42 43 43 44 44 44 45 45 45 44 44 45 45 45 47 48 49 50 51 52 53 54 56
33 30 30 27 24 23 23 25 23 16 17 19 18 19 32 32 32 36 36 37 41 42 41 42 43 43 44 43 43 42 42 42 42 42 42 43 44 44 46 47 48 49 50 51
23 29 32 26 26 24 23 25 24 20 20 21 21 21 29 32 34 35 34 37 39 40 42 43 43 42 41 40 41 40 40 39 40 40 40 41 42 42 43 44 45 46 46 47
24 25 22 32 31 28 25 25 25 21 19 21 22 23 32 32 34 34 36 38 40 42 43 41 40 39 39 38 38 39 38 38 39 40 39 41 41 42 42 43 44 44 44 45
21 22 25 28 32 29 26 25 27 27 24 23 27 33 34 35 36 36 38 41 43 42 41 40 40 40 39 38 38 37 37 37 38 38 37 38 39 41 41 41 42 42 43 42
22 20 20 27 28 30 29 28 28 27 27 26 34 33 33 38 38 40 42 42 40 40 40 40 40 40 39 39 38 39 39 39 38 37 36 37 39 39 40 40 40 40 39 40
19 22 19 20 31 27 28 29 31 30 29 34 35 30 39 40 41 41 40 40 40 39 38 38 39 39 39 39 39 39 39 38 37 37 36 38 39 39 39 38 39 38 38 38
24 23 20 23 30 26 32 34 37 37 38 38 35 41 40 41 40 39 40 39 38 38 38 37 37 37 37 37 37 37 37 37 37 38 37 38 38 38 39 39 38 38 38 39
26 29 31 33 30 28 29 33 38 39 37 34 41 41 41 40 40 40 39 38 37 37 36 36 35 35 34 35 36 36 36 35 36 36 36 36 37 36 36 35 35 34 36 36
24 25 30 36 38 40 39 38 38 40 42 42 41 41 40 40 39 38 37 36 36 35 34 33 33 33 34 34 34 34 34 34 34 35 34 35 35 34 33 32 32 33 34 33
29 31 32 33 36 40 41 41 40 41 41 41 41 40 40 39 38 37 36 35 35 34 32 31 31 31 32 32 32 31 31 31 31 32 32 32 32 33 33 34 32 32 33 33
24 29 32 35 40 42 40 41 41 40 40 40 40 39 40 38 37 36 35 34 33 31 30 30 29 29 29 29 29 29 28 28 29 29 29 30 30 30 32 34 33 33 33 33
26 34 36 37 43 41 39 39 40 40 39 39 40 39 38 37 36 34 33 32 31 29 28 28 28 28 29 29 28 28 27 26 28 29 29 29 28 28 29 33 31 30 31 32
33 34 33 42 40 39 39 40 41 41 40 39 38 37 35 34 33 32 31 29 28 27 27 25 24 25 26 26 26 27 27 27 28 28 28 28 27 27 27 28 28 30 31 30
35 37 38 42 40 40 40 39 39 38 37 36 36 35 34 32 31 29 28 27 26 25 24 24 24 22 24 24 21 22 22 22 22 22 23 23 26 28 28 28 28 28 29 29
36 42 41 40 38 38 38 37 36 36 35 34 33 33 31 30 28 27 26 26 25 24 24 23 21 20 21 19 18 20 21 21 20 20 19 19 20 20 21 23 25 27 27 28
42 38 39 38 37 36 36 35 34 33 33 32 31 29 28 27 26 25 24 24 23 21 19 19 21 22 20 18 19 19 19 18 18 17 18 19 20 19 18 20 20 21 25 31
41 42 39 37 36 34 34 33 32 32 31 30 29 28 28 26 24 23 23 22 20 20 19 18 18 19 17 16 19 16 16 16 15 16 18 19 20 19 19 21 22 22 22 22
38 36 36 35 33 32 31 31 31 30 30 29 28 27 26 24 23 22 21 20 18 16 16 15 16 13 13 16 17 15 15 15 15 15 18 17 18 19 20 20 20 21 21 21
34 33 33 32 31 30 29 30 29 28 28 26 25 25 24 22 20 20 18 17 16 16 15 13 12 11 14 14 16 15 16 16 15 16 16 17 18 18 19 18 18 19 19 19
31 30 29 28 28 28 28 29 28 27 26 26 25 24 22 20 20 19 15 14 14 15 13 12 12 12 14 14 14 16 15 15 15 16 16 16 16 16 16 16 17 17 17 17
29 28 27 27 27 27 27 27 27 26 24 23 22 21 20 19 18 16 17 14 14 14 12 12 13 15 16 15 15 15 14 15 15 15 14 14 14 14 14 14 14 15 15 16
29 28 27 26 25 25 25 24 23 21 20 19 19 18 14 13 13 12 12 13 13 13 12 13 14 16 16 16 16 16 14 14 14 14 14 14 14 13 13 13 13 13 14 14
28 27 25 24 23 20 18 18 18 20 21 19 19 18 14 15 12 11 13 14 14 14 13 13 14 15 16 16 16 15 14 13 14 13 13 12 13 13 12 12 12 12 12 13
25 24 22 21 18 18 16 14 12 12 13 14 14 15 15 16 16 15 15 14 14 14 14 13 13 14 15 14 14 13 13 13 12 13 13 12 11 11 11 11 12 12 11 11
24 23 21 20 18 18 17 16 14 14 15 16 17 17 17 15 15 14 14 13 14 14 14 13 14 15 13 13 12 12 12 11 12 12 13 11 11 11 10 10 10 9 9 8
24 23 21 20 20 20 21 19 17 15 16 17 16 17 17 17 16 15 15 15 15 14 14 13 13 12 12 12 11 11 11 12 10 11 11 11 11 10 8 7 5 4 4 4

GFSNGP_sfc_30mbdewp_258.txt.gz
Dewpoint
23 26 31 31 31 29 27 25 27 27 25 26 28 25 25 27 37 36 37 39 42 45 45 46 46 46 46 46 45 45 44 44 44 44 44 46 46 46 48 49 49 50 50 51
23 23 23 27 26 27 29 27 24 25 23 25 28 29 27 24 34 34 38 38 41 43 44 44 45 44 44 44 43 42 41 41 41 41 42 44 44 44 45 46 48 47 48 48
19 19 20 20 23 25 29 29 26 24 26 27 27 29 28 34 35 33 37 37 41 42 43 44 44 43 41 42 42 40 39 39 40 40 40 41 41 43 43 45 45 45 44 43
20 18 15 16 20 24 23 26 30 26 25 26 28 28 28 34 34 34 38 38 40 43 44 42 41 41 40 39 40 38 38 38 38 37 37 38 40 41 42 42 42 42 41 41
15 15 16 16 14 16 22 27 31 29 29 27 27 30 32 36 39 37 38 40 43 44 42 42 41 41 39 39 39 39 38 38 37 37 36 38 40 40 41 40 39 40 40 40
18 15 11 10 8 14 22 24 30 33 31 30 28 26 32 37 39 39 42 43 42 42 41 41 42 41 40 40 39 39 38 37 37 37 37 38 39 39 38 38 38 39 38 39
15 16 17 16 16 17 15 22 38 40 39 31 31 31 38 40 42 43 43 41 40 40 39 39 40 40 39 38 37 38 38 38 38 37 37 38 37 39 38 38 38 37 37 40
14 13 15 21 18 16 24 33 36 40 43 36 36 38 41 43 41 41 40 39 38 38 37 37 38 37 36 36 37 37 37 36 36 36 36 36 36 35 35 34 34 33 34 35
13 15 18 20 23 25 23 24 32 40 43 42 41 42 42 41 42 41 39 38 37 36 34 34 35 35 34 35 35 35 35 34 34 35 35 34 33 32 32 31 31 31 30 31
19 17 22 23 25 26 30 34 40 41 42 43 43 42 41 41 40 39 38 37 36 35 33 32 32 32 33 33 33 32 32 32 32 32 31 31 32 31 30 30 30 29 29 29
21 23 22 22 22 26 30 34 36 39 43 43 42 41 42 40 38 37 37 36 34 32 31 31 31 30 30 30 30 29 29 30 29 30 30 31 30 30 30 32 32 32 32 32
20 21 23 23 23 26 33 34 34 37 42 43 42 40 39 38 37 36 35 33 31 30 29 28 28 29 29 29 28 28 27 28 29 29 28 28 28 28 29 32 30 30 30 31
22 24 25 24 29 31 33 33 38 40 43 41 39 38 37 36 35 33 32 30 29 28 28 28 27 26 27 27 27 27 27 26 29 29 29 26 26 25 26 28 28 28 30 32
23 25 26 28 29 32 37 39 41 43 40 38 37 36 34 33 32 32 32 31 28 26 25 24 24 24 25 24 22 24 25 24 24 25 26 25 25 26 26 25 26 28 30 29
25 26 28 29 33 37 37 38 40 37 36 36 35 34 33 32 32 32 31 27 25 24 23 22 20 20 21 21 21 22 23 21 22 24 24 24 24 23 23 22 22 23 23 25
27 29 36 37 37 37 40 40 36 35 34 33 33 32 33 32 30 27 26 25 23 21 21 21 21 21 20 20 21 21 22 20 20 22 20 20 20 21 21 21 22 23 23 24
32 33 34 35 40 41 37 35 34 33 32 32 32 32 29 26 25 24 23 22 21 20 20 21 21 21 19 22 20 21 20 20 19 20 19 19 20 20 21 20 20 20 21 20
34 37 39 40 38 35 33 33 32 31 31 31 31 28 26 25 24 22 20 20 20 18 17 17 20 18 17 19 19 19 19 18 18 19 19 19 19 19 20 19 19 19 19 18
38 36 35 34 33 32 31 31 30 31 30 29 27 26 26 25 24 22 22 21 18 16 16 16 17 16 16 18 19 19 18 17 17 18 17 18 18 18 18 17 17 17 18 17
31 32 32 31 31 30 29 30 30 28 27 26 24 23 22 22 21 19 18 17 16 16 15 15 15 16 16 17 17 17 17 17 16 16 17 16 16 16 16 15 15 16 16 16
29 29 29 28 29 29 29 28 26 26 25 24 21 19 19 20 20 19 16 15 14 15 15 15 16 16 16 15 16 17 17 16 16 16 16 15 15 14 14 13 14 15 14 15
29 28 28 28 27 28 28 27 27 25 24 22 22 20 19 17 16 17 16 15 15 14 14 15 17 18 17 16 17 16 15 16 15 15 15 15 14 13 13 12 13 13 13 13
28 28 28 26 25 24 24 23 22 21 19 19 19 18 15 15 15 15 14 14 14 14 14 16 17 17 18 18 17 17 15 16 15 15 14 14 14 13 12 12 12 12 11 10
27 26 25 24 22 20 18 19 20 21 20 20 19 18 17 16 14 14 14 14 14 15 15 16 17 16 17 18 16 16 15 14 16 15 14 13 13 12 12 11 10 11 9 9
25 24 22 20 19 18 18 16 16 16 17 17 17 18 18 18 17 17 17 17 16 15 17 17 15 16 16 16 16 14 15 15 13 14 13 12 12 11 10 10 8 7 7 6
23 22 21 20 18 16 15 15 16 17 18 19 20 20 19 18 17 17 17 16 16 16 15 15 17 16 15 15 15 15 13 12 14 13 12 12 11 8 7 6 6 5 5 4
24 22 21 20 19 20 19 18 19 18 19 19 19 19 19 19 18 17 18 17 17 16 16 16 15 14 15 14 14 13 13 14 12 12 10 9 9 8 6 6 5 4 3 3